METEOR PRIRODA (12585 NORAD) Tracking and Keplerian Element Data

This shows tracking and keplerian element data for the satellite.

Feedback or suggestion? Click here.




ElementValue
Catalog12585
NameMETEOR PRIRODA
Epoch Orbit32187
Epoch Day12.65003594
Epoch Year2024
RAAN37.5213
Inclination97.5623
Eccentricity0.0009068
Argument of Perigee274.6605
Mean Anonmoly85.3602
Mean Motion15.34391013
Decay Rate0.00014538
L11 12585U 81065A 24012.65003594 .00014538 00000+0 43812-3 0 9993
L22 12585 97.5623 37.5213 0009068 274.6605 85.3602 15.34391013321874



Live tracking and technical data element details for METEOR PRIRODA (NORAD 12585). METEOR PRIRODA can be tracked NOW for your location showing map with azimuth and elevation plus other details from your city location.







IsCatalogInMostPopularTable: catalog: 12585, numindb: 296
Update: records affected: 1



GetName: 12585 METEOR PRIRODA

Hit Count: updated at: Sun, 14 Apr 2024 23:41:17 GMT